Volver al catálogo

STARLINK-30122

ActivoComunicacionesVLEO
NORAD 56688·PAYLOAD·🇺🇸 United States

Lanzado May 19, 2023 desde Cape Canaveral Space Force Station

Loading…

Próximos Pases (próximas 24 horas)

TLE

ActualizadoSource: CelesTrak SupGP

Época: Sep 15, 2026, 02:17 UTC

1 56688C 23067A   26258.09562500  .00023266  00000+0  84246-3 0  2584
2 56688  43.0023 288.4060 0001652 270.4693 124.8620 15.27575911    17

Sigue STARLINK-30122 en tiempo real con AllMySat

Download on the App Store